This demonstration page uses our WeatherBlox Daily Observations layout. Learn more.

38.89511, -77.03637

Hourly Observations for April 20, 2017

Temp ( °F °C ) Dew Point ( °F °C ) Humidity (%) Winds ( mph kmh ) Pressure ( in mb ) Visibility ( mi km ) Precip ( " mm )
12:52 am 00:52 Cloudy 61 16.1 55 12.8 81 81 SSW 7 11 30.18 1022 10 16.09344 0 0
1:52 am 01:52 Cloudy 61 16.1 55 12.8 81 81 SSW 9 15 30.15 1021 10 16.09344 0 0
2:52 am 02:52 Cloudy 60 15.6 55 12.8 84 84 SSW 9 15 30.12 1020 10 16.09344 0 0
3:52 am 03:52 Mostly Cloudy 59 15 55 12.8 87 87 SSW 9 15 30.12 1020 10 16.09344 0 0
4:26 am 04:26 Cloudy 58 14.4 54 12.2 87 87 SSW 8 13 30.12 1020 10 16.09344 0 0
4:42 am 04:42 Cloudy 57 14 54 12 88 88 SW 7 11 30.12 1020 10 16.09344 0 0
4:52 am 04:52 Cloudy 58 14.4 54 12.2 87 87 SSW 8 13 30.09 1019 10 16.09344 0 0
5:01 am 05:01 Cloudy 58 14.4 54 12.2 87 87 SSW 8 13 30.12 1020 10 16.09344 0 0
5:52 am 05:52 Cloudy 58 14.4 54 12.2 87 87 SW 10 17 30.12 1020 10 16.09344 0 0
6:52 am 06:52 Cloudy 58 14.4 54 12.2 87 87 WSW 8 13 30.12 1020 10 16.09344 0 0
7:52 am 07:52 Cloudy 59 15 55 12.8 87 87 W 8 13 30.15 1021 10 16.09344 0 0
8:19 am 08:19 Cloudy with Haze 60 15.6 55 12.8 84 84 WSW 9 15 30.15 1021 3 4.828032 0 0
8:26 am 08:26 Cloudy with Light Rain 59 15 56 13.3 90 90 SW 8 13 30.15 1021 5 8.04672 0.08 2.032
8:52 am 08:52 Cloudy 60 15.6 57 13.9 90 90 S 10 17 30.09 1019 10 16.09344 0.09 2.286
9:52 am 09:52 Mostly Cloudy 62 16.7 57 13.9 84 84 SSW 10 17 30.09 1019 10 16.09344 0.001 0.001
10:52 am 10:52 Partly Cloudy 68 20 59 15 73 73 W 6 9 30.09 1019 10 16.09344 0 0
11:52 am 11:52 Mostly Sunny 69 20.6 59 15 70 70 SE 5 7 30.09 1019 10 16.09344 0 0
12:52 pm 12:52 Mostly Sunny 73 22.8 61 16.1 66 66 S 7 11 30.03 1017 10 16.09344 0 0
1:52 pm 13:52 Mostly Sunny 76 24.4 61 16.1 60 60 S 8 13 30.03 1017 10 16.09344 0 0
2:52 pm 14:52 Partly Cloudy 79 26.1 60 15.6 52 52 SSE 9 15 29.97 1015 10 16.09344 0 0
3:52 pm 15:52 Partly Cloudy 81 27.2 61 16.1 51 51 SSE 9 15 29.94 1014 10 16.09344 0 0
4:52 pm 16:52 Mostly Cloudy 81 27.2 61 16.1 51 51 S 7 11 29.94 1014 10 16.09344 0 0
5:52 pm 17:52 Cloudy 78 25.6 64 17.8 62 62 S 10 17 29.91 1013 10 16.09344 0 0
6:52 pm 18:52 Cloudy 77 25 62 16.7 60 60 S 9 15 29.91 1013 10 16.09344 0 0
7:40 pm 19:40 Cloudy 75 24 63 17 65 65 S 12 19 29.94 1014 10 16.09344 0 0
7:52 pm 19:52 Cloudy 76 24.4 63 17.2 64 64 S 12 19 29.91 1013 10 16.09344 0 0
8:04 pm 20:04 Cloudy with Nearby Thunderstorms 77 25 63 17 61 61 S 15 24 29.91 1013 10 16.09344 0 0
8:25 pm 20:25 Cloudy with Nearby Thunderstorms 75 23.9 64 17.8 69 69 SSW 22 35 29.94 1014 10 16.09344 0.001 0.001
8:27 pm 20:27 Cloudy with Light Thunderstorms 74 23.3 64 17.8 71 71 SSW 15 24 29.94 1014 9 14.484096 0.001 0.001
8:52 pm 20:52 Mostly Cloudy with Thunderstorms 71 21.7 66 18.9 84 84 S 12 19 29.94 1014 10 16.09344 0.02 0.508
8:59 pm 20:59 Mostly Cloudy 70 21.1 66 18.9 87 87 S 12 19 29.94 1014 10 16.09344 0 0
9:52 pm 21:52 Cloudy 68 20 65 18.3 90 90 S 10 17 29.94 1014 10 16.09344 0 0
10:52 pm 22:52 Mostly Cloudy 68 20 64 17.8 87 87 SSE 6 9 29.94 1014 10 16.09344 0 0
11:52 pm 23:52 Mostly Clear 67 19.4 64 17.8 91 91 SSE 5 7 29.91 1013 10 16.09344 0 0

Powered by AerisWeather